Weather in Khomutovo

Russia / Irkutsk Oblast     52˚27′55″N   104˚21′43″E
temp.,
°C
wind,
m/s
gust,
m/s
humid.,
%
clouds,
%
prec.,
mm/h
press.,
hPa
HPBL,
m
17 january, sun
sun1723:00−16˚nw3996100 0.3 1032436
02:00−17˚wnw2697100 0.6 1031299
05:00−18˚nw1298100 0.3 102921
08:00−19˚nne1198100 0.4 102820
11:00−18˚e2296100 0.3 1026159
14:00−16˚ene3393100 0.5 1024250
17:00−18˚ne3595100 0.1 1024153
20:00−20˚ne4595100 0.2 1025109
18 january, mon
mon1823:00−22˚ene469487 0.0 102492
02:00−18˚ene469693 0.2 1021137
05:00−16˚ene4591100 0.0 101998
08:00−15˚e2388100 0.0 101858
11:00−13˚wsw2394100 0.3 1020254
14:00−12˚sw118997 0.3 1018188
17:00−14˚e229212 0.0 101720
20:00−13˚ese239356 0.0 101632
19 january, tue
tue1923:00−14˚ese238934 0.0 101434
02:00−14˚ese348732 0.0 101247
05:00−12˚se349027 0.0 101056
08:00−10˚sse238661 0.0 101133
11:00−10˚wnw258497 0.0 1014151
14:00−8˚nnw477897 0.0 1015927
17:00−12˚nnw238183 0.0 101821
20:00−16˚nne118191 0.0 102120
20 january, wed
wed2023:00−15˚e1181100 0.0 102120
02:00−17˚ene2386100 0.0 102036
05:00−17˚ene3491100 0.0 102074
08:00−16˚e2396100 0.1 102061
11:00−15˚e129399 0.0 101986
14:00−12˚ne229198 0.0 1016191
17:00−12˚nnw369397 0.1 1018206
20:00−13˚nw589599 0.6 1024284
21 january, thu
thu2123:00−16˚nnw4991100 0.3 1029381
02:00−22˚nw2390100 0.3 103220
05:00−26˚nw119192 0.0 103320
08:00−28˚e119056 0.0 103319
11:00−24˚ene12890 0.0 103082
14:00−19˚ene23880 0.0 1026207
17:00−20˚ene349134 0.0 102452
20:00−19˚ene339563 0.0 102448